Location: Arrodets-la-Barthe
(43.0306°N, 0.2829°E)
Time: 13:16:13
(UTC+00:00)

STRAND 1 - Pass Details

Date: 04 April 2023
Orbit: 767 x 779 km, 98.4° (Epoch: 28 May)

Event Time Altitude Azimuth Distance (km) Brightness Sun altitude
Rises 04:43:29 0° 129° (SE) 3,244 ? -10.3°
Reaches altitude 10° 04:46:11 10° 116° (ESE) 2,319 ? -9.8°
Maximum altitude 04:50:11 24° 64° (ENE) 1,575 ? -9.1°
Drops below altitude 10° 04:54:11 10° 12° (NNE) 2,324 ? -8.4°
Sets 04:56:53 0° 359° (N) 3,254 ? -7.9°
